Location: Demmingen
(48.6757°N, 10.4375°E)
Time: 07:12:06
(UTC+00:00)

Okean 1-7 - Visible Passes

Search period start: 13 July 2025 00:00
Search period end: 23 July 2025 00:00
Orbit: 569 x 592 km, 82.5° (Epoch: 12 July)

Date Brightness Start Highest point End Pass type
(mag) Time Alt. Az. Time Alt. Az. Time Alt. Az.
13 Jul 5.9 20:03:18 10° WSW 20:06:18 19° WNW 20:09:20 10° NNW visible
14 Jul 6.1 20:09:26 10° W 20:11:48 15° WNW 20:14:11 10° NNW visible
15 Jul 6.5 20:16:05 10° W 20:17:20 11° WNW 20:18:35 10° NW visible
